カタログに戻る

COSMOS 397 DEB *

運用中LEO
NORAD 5416·DEBRIS·🇷🇺 Russia

打ち上げ Feb 25, 1971 から Baikonur Cosmodrome

Loading…

次のパス (今後24時間)

TLE

最新Source: Space-Track

元期: Sep 13, 2026, 02:57 UTC

1 05416U 71015BN  26256.12326701  .00000605  00000-0  63828-3 0  9994
2 05416  65.7837 135.6250 0073522 272.6194 241.4363 13.80917333304969

AllMySatでCOSMOS 397 DEB *をリアルタイム追跡

Download on the App Store